Regional Weather Roundup
Issued by NWS Albany, NY

Home | Current Version | Previous Version | Text Only | Print | Product List | Glossary On
Versions: 1 2 3 4 5 6 7 8 9 10 11 12 13 14 15 16 17 18 19 20 21 22 23 24 25 26 27 28 29 30 31 32 33 34 35 36 37 38 39 40 41 42 43 44 45 46 47 48 49 50
000
ASUS41 KALY 041810
RWRALY

NEW YORK STATE HOURLY WEATHER ROUNDUP
NATIONAL WEATHER SERVICE ALBANY NY
200 PM EDT MON MAY 04 2015

NOTE: "FAIR" INDICATES FEW OR NO CLOUDS BELOW 12,000 FEET WITH NO
SIGNIFICANT WEATHER AND/OR NO OBSTRUCTIONS TO VISIBILITY.

NYZ032-033-038>043-046>054-057>066-NYZ062>081-041900-
EAST


CITY           SKY/WX    TMP DP  RH WIND       PRES   REMARKS
ALBANY         MOSUNNY   84  37  18 S9G17     30.07F
GLENS FALLS    MOSUNNY   82  39  21 SW15G24   30.06F
POUGHKEEPSIE   SUNNY     85  36  17 SW15G24   30.11F
NEWBURGH       MOSUNNY   82  43  24 W17G29    30.14F
MONTGOMERY     MOSUNNY   84  41  21 S15G24    30.11F
WHITE PLAINS   SUNNY     80  43  26 S16G23    30.16F
ISLIP          MOSUNNY   71  47  42 S15       30.19F
NEW YORK CITY  MOSUNNY   80  46  30 S14       30.17S
CENTRAL PARK   MOSUNNY   82  46  28 S9        30.20S
$$

NYZ005>009-017-018-044>046-055-056-041900-
CENTRAL


CITY           SKY/WX    TMP DP  RH WIND       PRES   REMARKS
FULTON         PTSUNNY   82  43  25 S14G24    30.04F
SYRACUSE       MOSUNNY   82  40  22 SW17G33   30.06F
ROME           LGT RAIN  81  39  22 SW14G20   30.07F
ELMIRA         MOSUNNY   82  40  22 SW17G24   30.08F
BINGHAMTON     PTSUNNY   77  40  26 SW15G26   30.13F
MONTICELLO     MOSUNNY   81  39  22 W8G21     30.16F
$$

NYZ026>034-041>043-041900-
NORTH


CITY           SKY/WX    TMP DP  RH WIND       PRES   REMARKS
WATERTOWN      SUNNY     80  44  27 W15G29    30.03F
FORT DRUM      NOT AVBL
MASSENA        SUNNY     82  44  26 SW24G40   29.98F
SARANAC LAKE   MOSUNNY   76  36  23 SW15G22   30.04F
PLATTSBURGH    PTSUNNY   83  35  18 SW8G22    29.98F
$$

NYZ001>004-010>016-019>021-041900-
WEST


CITY           SKY/WX    TMP DP  RH WIND       PRES   REMARKS
NIAGARA FALLS  CLOUDY    77  47  34 SW28G36   30.04F
BUFFALO        PTSUNNY   77  45  32 SW23G31   30.05F
DUNKIRK        MOSUNNY   76  47  35 W15G28    30.07S
JAMESTOWN      MOSUNNY   75  45  33 SW16G23   30.13S
WELLSVILLE     SUNNY     78  37  22 SW18G26   30.15F
ROCHESTER      CLOUDY    81  44  27 W20G31    30.04F
PENN YAN       MOSUNNY   81  41  24 S13G24    30.08F
$$

             KEY
       WCI = WIND CHILL INDEX
       VSB = VISIBILITY
       HX  = HEAT INDEX
$$


USA.gov is the U.S. government's official web portal to all federal, state and local government web resources and services.